PulseSat

PulseSat

GSAT0206 (PRN E30)

Last updated on March 20, 2019, 3:12 a.m. UTC

1 40890U 15045B   19077.61512814  .00000010  00000-0  00000-0 0  9999
2 40890  56.5170 294.6489 0002979  34.0350 326.0360  1.70474723 21908
UTC
Height (km)
Latitude
Longitude
Inclination
Orbital Period

Next 30 passes for location: Hong Kong

Rise time Rise Azimuth (degrees) Set time Set Azimuth (degrees) Duration Max altitude (degrees)

No matching passes for this satellites

PulseSat

PulseSat is the new satellites software and hardware trackering solution by Pulsely.
Satellite Two Line Element Set source: US Air Force Space Command

Download PulseSat for iOS
© 2017 Pulsely Limited